TimeEDT,TemperatureF,Dew PointF,Humidity,Sea Level PressureIn,VisibilityMPH,Wind Direction,Wind SpeedMPH,Gust SpeedMPH,PrecipitationIn,Events,Conditions,WindDirDegrees,DateUTC
12:15 AM,40.3,24.8,54,30.17,10.0,WSW,4.6,-,N/A,,Clear,250,2013-03-15 04:15:00
12:35 AM,40.3,24.6,54,30.17,10.0,WSW,3.5,-,N/A,,Clear,240,2013-03-15 04:35:00
12:55 AM,40.1,24.3,53,30.17,10.0,WSW,3.5,-,N/A,,Clear,250,2013-03-15 04:55:00
1:15 AM,40.3,24.4,53,30.17,10.0,West,4.6,-,N/A,,Clear,260,2013-03-15 05:15:00
1:35 AM,39.9,24.6,54,30.18,10.0,WSW,3.5,-,N/A,,Clear,250,2013-03-15 05:35:00
1:55 AM,39.0,24.8,57,30.18,10.0,WNW,3.5,-,N/A,,Clear,290,2013-03-15 05:55:00
2:15 AM,39.2,25.0,57,30.18,10.0,NW,3.5,-,N/A,,Clear,310,2013-03-15 06:15:00
2:35 AM,37.2,25.5,63,30.19,10.0,Calm,Calm,-,N/A,,Clear,0,2013-03-15 06:35:00
2:55 AM,35.4,26.2,69,30.18,10.0,Calm,Calm,-,N/A,,Clear,0,2013-03-15 06:55:00
3:15 AM,36.1,26.4,68,30.18,10.0,Calm,Calm,-,N/A,,Clear,0,2013-03-15 07:15:00
3:35 AM,38.1,24.8,59,30.17,10.0,NW,3.5,-,N/A,,Clear,320,2013-03-15 07:35:00
3:55 AM,37.2,24.6,60,30.17,10.0,Calm,Calm,-,N/A,,Clear,0,2013-03-15 07:55:00
4:15 AM,36.5,23.9,60,30.17,10.0,Calm,Calm,-,N/A,,Clear,0,2013-03-15 08:15:00
4:35 AM,34.3,25.0,69,30.17,10.0,Calm,Calm,-,N/A,,Clear,0,2013-03-15 08:35:00
4:55 AM,33.8,25.0,70,30.17,10.0,Calm,Calm,-,N/A,,Clear,0,2013-03-15 08:55:00
5:15 AM,34.3,25.0,69,30.17,10.0,Calm,Calm,-,N/A,,Clear,0,2013-03-15 09:15:00
5:35 AM,34.2,25.9,72,30.17,10.0,Calm,Calm,-,N/A,,Clear,0,2013-03-15 09:35:00
5:55 AM,33.3,25.9,74,30.18,10.0,Calm,Calm,-,N/A,,Clear,0,2013-03-15 09:55:00
6:15 AM,32.5,25.2,74,30.18,10.0,Calm,Calm,-,N/A,,Clear,0,2013-03-15 10:15:00
6:35 AM,31.8,24.3,74,30.19,10.0,Calm,Calm,-,N/A,,Clear,0,2013-03-15 10:35:00
6:55 AM,31.6,25.9,79,30.20,10.0,Calm,Calm,-,N/A,,Clear,0,2013-03-15 10:55:00
7:15 AM,30.2,25.0,81,30.19,10.0,Calm,Calm,-,N/A,,Clear,0,2013-03-15 11:15:00
7:35 AM,30.2,24.8,80,30.20,10.0,Calm,Calm,-,N/A,,Clear,0,2013-03-15 11:35:00
7:55 AM,29.8,25.2,83,30.20,10.0,Calm,Calm,-,N/A,,Clear,0,2013-03-15 11:55:00
8:15 AM,31.5,26.6,82,30.20,10.0,Calm,Calm,-,N/A,,Clear,0,2013-03-15 12:15:00
8:35 AM,34.0,28.0,79,30.20,10.0,Calm,Calm,-,N/A,,Clear,0,2013-03-15 12:35:00
8:55 AM,38.5,28.9,69,30.21,10.0,Calm,Calm,-,N/A,,Clear,0,2013-03-15 12:55:00
9:15 AM,41.9,24.1,49,30.21,10.0,Calm,Calm,-,N/A,,Clear,0,2013-03-15 13:15:00
9:35 AM,44.4,24.4,45,30.21,10.0,Calm,Calm,-,N/A,,Clear,0,2013-03-15 13:35:00
9:55 AM,46.9,19.9,34,30.21,10.0,Calm,Calm,-,N/A,,Clear,0,2013-03-15 13:55:00
10:15 AM,48.6,19.6,32,30.21,10.0,Calm,Calm,-,N/A,,Clear,0,2013-03-15 14:15:00
10:35 AM,48.9,18.7,30,30.21,10.0,Calm,Calm,-,N/A,,Clear,0,2013-03-15 14:35:00
10:55 AM,50.0,18.7,29,30.21,10.0,Calm,Calm,-,N/A,,Clear,0,2013-03-15 14:55:00
11:55 AM,52.3,18.0,26,30.18,10.0,West,4.6,-,N/A,,Clear,260,2013-03-15 15:55:00
12:15 PM,53.6,17.4,24,30.17,10.0,West,9.2,-,N/A,,Clear,270,2013-03-15 16:15:00
12:35 PM,55.0,17.6,23,30.16,10.0,West,9.2,-,N/A,,Clear,260,2013-03-15 16:35:00
12:55 PM,55.6,17.6,23,30.15,10.0,West,9.2,-,N/A,,Clear,260,2013-03-15 16:55:00
1:15 PM,56.7,19.4,23,30.14,10.0,WSW,5.8,16.1,N/A,,Clear,240,2013-03-15 17:15:00
1:35 PM,57.2,19.0,23,30.11,10.0,South,3.5,-,N/A,,Clear,180,2013-03-15 17:35:00
1:55 PM,58.1,21.4,24,30.10,10.0,SW,5.8,-,N/A,,Clear,220,2013-03-15 17:55:00
2:15 PM,58.8,22.1,24,30.09,10.0,SSW,9.2,-,N/A,,Clear,200,2013-03-15 18:15:00
2:35 PM,60.1,23.5,25,30.08,10.0,SSW,9.2,-,N/A,,Clear,210,2013-03-15 18:35:00
3:15 PM,61.5,25.2,25,30.06,10.0,SSW,12.7,-,N/A,,Clear,210,2013-03-15 19:15:00
3:35 PM,61.7,25.9,26,30.04,10.0,SSW,9.2,18.4,N/A,,Clear,210,2013-03-15 19:35:00
4:15 PM,62.8,27.5,26,30.03,10.0,SW,10.4,-,N/A,,Clear,230,2013-03-15 20:15:00
4:35 PM,63.3,28.8,27,30.03,10.0,WSW,12.7,17.3,N/A,,Clear,250,2013-03-15 20:35:00
4:55 PM,63.9,29.7,28,30.02,10.0,WSW,10.4,17.3,N/A,,Clear,240,2013-03-15 20:55:00
5:15 PM,64.0,30.4,28,30.01,10.0,WSW,9.2,-,N/A,,Clear,250,2013-03-15 21:15:00
5:35 PM,64.4,30.7,28,30.00,10.0,WSW,10.4,16.1,N/A,,Clear,250,2013-03-15 21:35:00
5:55 PM,64.0,31.1,29,29.99,10.0,SW,6.9,-,N/A,,Clear,230,2013-03-15 21:55:00
6:15 PM,63.5,31.3,30,29.99,10.0,SW,10.4,-,N/A,,Clear,220,2013-03-15 22:15:00
6:35 PM,63.0,31.6,31,29.98,10.0,SW,9.2,16.1,N/A,,Clear,220,2013-03-15 22:35:00
6:55 PM,61.2,31.6,33,29.98,10.0,SW,8.1,-,N/A,,Clear,220,2013-03-15 22:55:00
7:15 PM,60.8,32.2,34,29.98,10.0,SSW,5.8,-,N/A,,Clear,210,2013-03-15 23:15:00
7:35 PM,58.1,34.0,40,29.99,10.0,South,6.9,-,N/A,,Clear,170,2013-03-15 23:35:00
7:55 PM,56.1,35.6,46,30.00,10.0,South,5.8,-,N/A,,Clear,180,2013-03-15 23:55:00
8:15 PM,55.0,35.8,48,30.00,10.0,South,6.9,-,N/A,,Clear,180,2013-03-16 00:15:00
8:35 PM,54.0,36.3,51,29.99,10.0,South,5.8,-,N/A,,Clear,180,2013-03-16 00:35:00
8:55 PM,53.1,36.3,53,29.99,10.0,South,8.1,-,N/A,,Clear,180,2013-03-16 00:55:00
9:15 PM,52.5,36.7,55,29.99,10.0,South,6.9,-,N/A,,Clear,180,2013-03-16 01:15:00
9:35 PM,51.4,37.0,58,29.99,10.0,South,5.8,-,N/A,,Clear,180,2013-03-16 01:35:00
9:55 PM,50.9,37.0,59,29.99,10.0,South,6.9,-,N/A,,Clear,180,2013-03-16 01:55:00
10:15 PM,50.4,37.4,61,29.98,10.0,South,5.8,-,N/A,,Clear,180,2013-03-16 02:15:00
10:35 PM,50.4,37.9,62,29.98,10.0,South,5.8,-,N/A,,Clear,180,2013-03-16 02:35:00
10:55 PM,50.4,38.5,64,29.98,10.0,South,6.9,-,N/A,,Clear,170,2013-03-16 02:55:00
11:15 PM,50.4,39.2,66,29.98,10.0,South,6.9,-,N/A,,Clear,180,2013-03-16 03:15:00
11:35 PM,50.0,39.6,67,29.98,10.0,South,6.9,-,N/A,,Clear,180,2013-03-16 03:35:00
11:55 PM,50.0,39.9,68,29.97,10.0,South,5.8,-,N/A,,Clear,180,2013-03-16 03:55:00